DECAYED
Showing default

PROMETHEUS 2-3, 41855 (Decayed)

Orbit data source: Space-Track

PROMETHEUS 2-3, 41855 was a payload satellite owned by SOCOM (US) in LEO that was launched on Fri, 11 Nov 2016 UTC via an ATLAS V 401 launch vehicle from the Air Force Western Test Range (AFWTR). Payload-class satellites include a variety of spacecraft equipped with specific instruments for various scientific and technological missions. These include communications satellites like Starlink; space stations such as the ISS; scientific satellites like the Hubble; Earth observation satellites from companies like Planet Labs, Umbra, and HawkEye 360; GPS; miniature CubeSats for education and research; and military/defense satellites.

Not visible in the next 10 days
Identifier
41855, 2016-067H
Orbit
Decayed
Country
Flag of USUS
Related business
Manufacturer
LANL
Mission
Decayed Defense Communications
Bus & Motor
CUBESAT 1.5U, Unknown motor
Mass
2 kg wet, 2 kg dry
Launch date (UTC)
2016-11-11 (9 years ago)
Launch vehicle
ATLAS V 401
Launch site
Air Force Western Test Range (AFWTR)
Object type
Payload
Rocket body
Debris
Shape & HBR
Box + 2 Pan, 0.1 m
Radar Cross Section
0.015 m², Small (<0.1 m²)

Expand to show TLE details & history
Last TLE update: 5 months ago

TLE from 5 months ago
0 PROMETHEUS 2-3
1 41855U 16067H   25337.26230530  .10333909  30191-5  10838-2 0  9993
2 41855  98.0085 214.3983 0000778 241.2031 118.9187 16.37806791498015
Epoch: 2025-12-03T06:17Z
TLE epoch observation values (Epoch: 2025-12-03T06:17:43.177Z)
Latitude
-0.00008°
Longitude
47.63278°
Altitude
175.119 km
Speed
7.801 km/s
True Right ascension
14h 17m 35s
True Declination
0° 00' 00"
Sunlit
Object was in daylight at epoch
Visualization orbit readout
Latitude
Unknown
Longitude
Unknown
Altitude
Unknown
Speed
Unknown
Apparent Right ascension
Unknown
Apparent Declination
Unknown
Sunlit
N/A
Visualization observer readout
Local Sidereal Time
09:28:44
Azimuth
Unknown
Elevation
Unknown
Doppler factor
Unknown
Orbital elements
Apogee altitude
168.991 km
Perigee altitude
167.973 km
Semi-major axis
6,546.619 km
Eccentricity
0.00008
Inclination
98.0085°
RAAN
214.3983°
Arg. of periapsis
241.2031°
True anomaly
118.9265°
Mean anomaly
118.9187°
Eccentric anomaly
118.9226°
Mean motion
4.09749 °/min
Orbital period
87.86 mins
BSTAR
0.0010838
Loading maneuver chart data...
Computing Atmospheric mass density...
Loading historical data...
Loading historical data...
Loading historical data...
Loading historical data...
Loading historical data...
Loading historical data...
Loading historical data...

Documentation

Showing up to 5 results
|